Theta_e
308 308 307 307 307 307 308 308 309 311 314 314 312 312 313 314 315 315 316 316 317 316 316 316 315 315 315 314 315 316 319 318 318 322 322 321 320 318 318 315 312 310 308
308 307 306 307 307 308 309 310 312 311 314 312 312 312 312 311 312 312 313 313 312 312 312 312 313 312 312 313 314 314 315 318 319 319 319 318 316 315 315 312 311 308 308
307 306 306 307 308 308 310 311 312 311 312 311 312 311 311 311 310 310 310 310 310 309 309 309 310 309 309 310 311 312 314 315 317 318 317 316 313 313 312 311 309 309 307
307 306 306 308 308 309 310 311 311 310 309 309 309 309 309 308 308 307 307 307 307 307 306 306 307 307 308 309 308 309 311 313 315 316 315 313 312 311 310 311 309 308 309
305 305 307 308 310 310 310 309 308 308 308 307 306 306 306 306 305 305 304 304 304 304 304 304 305 306 305 307 308 307 309 311 311 311 311 311 310 309 310 311 309 308 308
305 305 307 308 308 308 307 307 305 305 305 304 304 303 303 303 304 304 304 304 304 304 305 307 307 308 306 306 307 308 308 307 308 309 309 309 310 310 312 311 310 309 308
306 306 308 307 307 306 304 304 304 303 302 301 302 303 303 304 304 304 305 305 305 305 306 306 307 307 308 306 306 307 308 307 308 310 310 309 310 310 312 312 310 310 310
305 307 307 306 305 304 303 302 301 301 301 301 302 303 303 303 303 304 305 305 306 306 306 306 305 306 306 306 307 307 306 307 307 308 308 309 311 311 310 310 311 310 308
307 306 305 304 303 302 302 302 302 301 302 302 303 303 303 304 304 305 305 305 306 306 305 305 305 305 305 305 305 305 305 305 305 305 305 305 308 309 311 311 310 310 308
305 304 303 302 301 301 303 303 303 302 302 303 303 303 303 303 303 304 305 305 306 306 306 305 305 305 306 306 306 306 306 304 303 303 304 303 305 308 310 309 310 309 308
303 302 302 302 303 304 303 303 303 303 303 303 303 303 303 303 304 304 305 305 305 306 306 307 306 306 307 307 306 305 304 302 302 303 304 303 305 308 308 309 308 307 307
302 302 303 303 304 304 303 304 304 304 304 304 303 305 305 304 305 305 305 305 306 306 306 306 306 305 305 305 305 304 303 302 301 302 303 303 304 306 307 307 308 307 307
303 303 304 303 304 304 304 303 303 303 304 304 304 304 303 304 305 305 305 305 305 305 306 306 306 306 305 304 304 303 302 301 301 301 301 301 301 303 305 306 306 307 307
302 302 302 303 303 303 303 302 302 303 303 303 303 303 304 303 303 304 305 305 304 306 305 305 304 304 303 301 301 300 300 300 301 300 299 299 300 301 303 304 305 306 307
301 301 301 303 303 302 302 302 302 303 303 302 302 303 303 303 303 303 303 304 304 304 304 302 301 301 300 299 300 300 300 300 300 300 300 299 300 301 302 303 305 307 308
301 301 301 302 302 302 301 300 302 302 303 303 303 303 303 303 303 302 302 304 303 303 302 300 300 300 299 299 299 299 300 300 299 300 299 300 301 302 303 305 307 308 308
301 300 301 301 301 301 300 301 302 303 303 303 303 303 304 303 302 302 302 302 302 301 300 299 299 299 299 299 299 300 300 300 300 300 300 301 302 303 304 306 307 308 308
300 301 301 300 300 300 301 300 301 301 303 303 303 303 303 303 303 302 302 302 301 301 300 301 299 299 299 299 299 299 299 299 300 300 301 302 303 304 305 306 306 307 307
301 301 302 302 301 300 301 301 302 302 303 303 302 302 301 301 302 301 302 301 301 301 301 300 299 299 299 299 299 299 299 300 300 301 302 303 304 306 305 306 307 308 308
304 304 304 303 299 300 300 300 300 302 302 302 302 301 301 303 301 301 302 301 301 301 301 302 301 302 302 302 301 301 300 300 301 302 302 304 305 306 307 307 308 309 309
303 301 300 299 299 299 299 300 300 300 300 301 301 301 301 302 302 302 303 302 302 301 302 302 301 301 301 301 301 302 302 302 302 302 303 304 306 307 306 307 309 309 310
299 298 298 299 299 299 299 299 300 300 299 300 301 301 301 302 302 302 303 303 302 302 303 303 301 301 302 302 304 304 303 303 303 304 305 306 306 306 307 308 309 309 309
299 299 298 298 297 297 297 296 296 296 299 300 300 301 302 302 302 303 302 303 303 302 303 303 302 302 303 302 301 305 306 305 305 305 306 306 307 307 308 309 309 309 309
299 299 298 297 297 296 296 295 295 295 299 300 300 301 302 302 302 302 303 303 303 303 303 303 304 303 303 303 304 302 301 303 303 304 306 307 308 308 308 308 307 306 306
299 299 298 298 298 297 296 294 293 293 296 300 300 301 301 302 302 302 302 302 303 303 303 304 303 303 303 303 303 303 302 302 303 302 302 302 301 299 298 298 298 298 299
299 299 298 298 297 296 295 294 292 291 293 298 300 300 301 301 302 302 302 302 302 302 302 303 303 303 303 303 303 303 303 303 303 303 303 302 302 302 302 302 303 303 303
Wind_Speed
35 32 35 36 30 26 26 24 21 18 16 16 16 16 14 13 13 14 14 16 14 14 12 11 11 10 9 10 11 12 13 14 13 14 12 11 17 16 13 7 7 11 14
32 36 40 32 23 20 21 18 14 13 15 13 11 12 13 10 7 7 6 7 6 5 5 5 6 7 7 8 9 10 11 12 12 12 11 11 15 17 11 15 9 14 13
33 35 33 21 20 20 19 16 13 15 12 10 7 9 7 5 3 1 2 3 4 5 5 6 6 5 7 8 9 8 9 9 9 10 9 13 17 15 16 15 14 16 11
29 28 26 23 21 20 18 14 9 10 12 7 4 4 5 4 3 3 4 3 3 3 4 5 6 8 8 8 9 8 8 6 2 4 8 15 20 16 21 19 18 15 10
26 23 25 23 16 14 14 9 8 8 4 2 2 3 4 5 6 7 5 4 4 4 5 5 6 6 4 4 8 9 8 6 5 8 13 19 20 22 20 17 19 16 11
19 20 20 20 14 12 8 7 4 4 4 5 8 10 7 9 13 12 13 11 6 3 6 10 16 9 7 4 8 9 11 10 12 16 17 18 19 17 14 19 15 17 12
19 21 14 15 11 9 8 6 6 7 9 8 10 10 12 10 11 9 9 8 7 5 7 14 17 21 9 8 8 8 8 7 12 12 13 13 11 14 15 17 16 13 8
17 15 13 10 7 7 9 11 14 13 12 12 10 10 10 10 10 7 8 12 11 10 11 13 14 16 19 19 17 18 20 21 17 13 13 13 9 9 11 12 11 15 9
13 12 9 7 9 13 17 15 14 13 12 14 12 12 12 12 10 9 12 13 16 13 13 12 11 13 13 13 14 17 18 16 12 9 8 9 10 10 9 13 15 11 10
9 7 11 18 19 16 13 14 14 14 13 14 16 14 14 14 14 13 12 14 15 16 15 14 14 10 8 11 12 13 11 12 10 7 4 7 11 13 14 13 8 7 4
8 14 19 15 15 15 17 16 14 14 14 17 17 15 13 14 14 13 14 12 13 12 13 12 11 10 9 6 9 9 10 11 12 9 7 9 11 14 15 13 12 6 3
19 17 15 14 13 13 15 15 17 14 17 18 14 17 16 12 12 11 8 8 14 13 13 11 10 9 10 10 9 9 9 9 9 11 12 13 14 13 13 12 9 7 4
15 14 16 18 15 14 15 15 18 18 14 12 13 16 21 16 10 9 12 10 9 10 11 9 9 8 7 8 7 6 6 8 10 13 15 15 13 12 13 12 9 7 6
17 17 16 15 16 15 16 19 17 20 16 15 18 16 15 15 13 12 9 11 12 11 9 8 6 6 7 7 7 9 11 11 12 14 15 14 14 14 14 13 12 13 16
17 18 16 13 16 20 19 20 17 16 15 17 16 15 16 19 18 14 11 9 9 9 8 7 9 12 11 12 12 12 12 11 11 10 12 15 17 19 20 20 22 25 27
16 14 15 16 17 16 17 16 15 14 12 13 11 14 17 17 13 12 13 13 11 7 7 13 14 13 11 11 12 12 12 12 11 13 17 17 18 22 24 26 28 26 25
13 17 18 17 14 15 16 16 20 19 21 18 15 14 13 15 13 15 15 15 18 20 23 17 14 13 12 12 13 13 14 14 17 19 19 19 20 22 24 26 26 24 22
18 15 13 12 12 11 12 12 13 13 13 16 15 13 12 14 15 14 14 16 19 20 19 16 15 18 19 18 16 15 17 17 18 19 19 19 20 22 23 23 23 22 22
14 11 10 9 7 7 7 11 15 16 15 16 14 15 15 15 18 19 21 24 25 27 34 33 27 25 23 23 23 21 19 19 20 20 19 19 20 21 21 23 21 23 23
5 1 3 5 11 14 12 12 14 15 14 13 16 16 17 24 22 23 28 27 28 25 31 29 24 23 20 17 19 21 21 19 19 19 19 21 20 21 21 22 22 22 25
10 14 16 16 14 12 13 16 17 18 16 15 17 18 18 24 23 25 25 28 28 26 33 35 32 32 27 25 19 17 19 20 20 20 22 24 22 22 22 23 23 24 26
22 22 18 16 13 14 15 15 15 17 18 18 19 18 19 24 24 27 30 29 28 30 29 29 32 37 35 31 28 30 30 29 29 29 29 27 26 25 27 28 28 28 29
15 14 15 16 15 17 17 18 19 18 19 20 21 23 24 25 25 26 28 26 24 26 29 29 27 29 34 34 35 32 34 35 35 32 31 30 30 31 32 32 31 31 30
14 17 17 16 17 18 18 17 18 21 23 24 24 25 25 25 26 28 28 27 27 29 27 26 26 29 34 32 35 39 38 36 37 37 37 36 35 33 31 31 31 31 31
14 14 16 16 16 17 16 17 18 19 21 24 25 24 23 22 22 24 25 25 25 26 27 28 28 29 29 27 28 28 27 29 30 33 35 36 36 36 35 33 32 32 31
13 13 15 14 14 15 17 18 19 20 21 22 23 24 23 24 24 23 23 23 23 23 23 25 25 24 24 24 23 22 22 23 22 21 23 24 25 25 24 25 25 25 23
Wind_Direction
315 312 318 317 308 303 309 299 294 297 304 310 307 317 306 306 295 286 286 279 281 289 291 291 291 290 281 285 284 279 275 267 272 272 267 240 219 220 230 175 158 135 118
314 316 321 319 317 311 309 308 291 300 298 303 312 308 306 301 303 310 311 309 311 327 328 313 320 309 310 305 296 289 284 272 265 269 260 217 214 209 197 162 157 134 121
318 323 326 321 318 315 313 306 308 309 308 309 302 296 291 279 294 329 337 325 327 340 338 326 320 328 330 336 317 309 292 279 265 251 240 215 194 189 166 156 156 137 128
320 326 328 326 324 319 310 296 315 327 332 313 289 285 285 289 307 340 350 330 334 336 329 335 350 351 355 358 342 348 347 332 322 241 211 194 182 169 155 153 156 139 148
324 325 328 333 320 312 316 327 335 349 312 305 342 349 336 322 341 353 6 4 2 347 3 15 6 349 2 16 20 34 40 58 104 135 151 159 158 154 167 168 155 161 160
330 327 327 339 345 353 354 359 19 48 60 51 63 54 51 67 66 70 58 44 27 2 52 60 52 41 73 70 61 75 73 79 99 121 128 141 158 169 164 172 152 166 151
331 327 331 334 346 2 14 36 48 56 82 77 80 70 62 42 56 74 58 60 50 68 86 65 63 55 79 83 93 90 80 105 96 103 122 153 152 164 171 166 172 178 173
333 333 335 346 16 50 65 67 69 71 71 64 57 51 44 45 37 55 61 50 71 82 98 71 77 71 72 74 86 77 69 71 75 88 92 91 110 145 137 161 191 166 148
334 340 2 45 75 90 71 63 66 74 67 67 59 58 64 68 72 69 64 54 76 76 86 81 82 81 81 77 78 90 89 84 81 84 100 120 136 146 176 162 159 167 155
360 43 79 90 87 79 69 66 66 74 69 64 65 72 73 71 69 66 66 66 65 61 86 78 84 73 81 72 63 77 70 61 47 42 80 155 165 166 170 178 172 169 142
68 96 95 82 75 78 74 75 73 70 77 81 78 74 75 72 70 66 65 63 70 82 95 83 85 67 62 69 68 61 51 45 31 44 93 132 149 162 169 170 166 161 108
103 98 85 84 76 65 83 74 64 77 67 80 74 68 66 68 69 65 62 63 70 80 89 88 87 78 79 76 64 44 37 23 43 71 89 106 140 149 152 159 167 157 112
85 78 75 80 85 79 72 64 65 62 71 61 80 73 62 61 54 51 65 66 61 72 74 93 99 92 78 79 75 41 20 21 70 78 82 88 99 134 140 161 159 138 137
83 86 83 77 77 76 71 76 66 71 74 61 64 73 67 51 57 63 75 77 62 95 95 86 59 58 55 58 35 64 71 72 79 79 83 91 101 110 126 136 141 140 136
91 87 81 81 84 86 76 69 69 74 74 73 67 74 60 50 50 65 66 69 93 82 78 75 58 44 54 71 79 77 81 84 86 84 90 101 105 112 113 122 124 126 120
96 90 85 90 90 86 77 74 63 65 72 84 83 69 69 54 59 63 69 78 73 54 27 65 64 53 63 70 79 80 87 89 85 94 100 102 113 118 119 122 122 119 123
95 93 92 94 88 81 78 73 79 68 95 72 76 83 66 54 62 81 73 64 58 59 65 71 63 60 61 78 82 85 86 83 100 100 99 106 114 119 121 122 122 119 119
95 93 91 87 80 70 58 69 80 75 87 87 81 71 65 69 83 87 77 71 61 59 56 61 64 73 77 75 78 88 99 99 103 105 104 107 115 117 117 116 114 113 116
96 93 88 87 42 36 67 86 91 97 99 99 83 78 73 74 86 80 69 74 72 66 75 78 81 80 79 80 79 82 88 100 105 108 107 112 115 119 116 115 112 109 118
91 122 8 69 85 98 83 71 79 86 93 95 88 72 71 76 81 66 75 78 76 81 63 63 63 60 66 78 75 78 80 94 108 109 110 116 118 117 117 119 115 114 121
82 94 101 106 96 79 73 68 68 74 81 87 81 77 73 80 66 66 83 76 74 74 74 71 74 71 78 77 83 90 101 103 108 113 114 116 117 113 118 119 117 117 124
95 103 109 98 88 82 75 66 68 71 77 89 92 82 78 78 75 71 80 80 79 66 61 60 71 80 67 68 82 89 95 99 101 108 110 112 110 109 112 115 118 118 119
97 103 98 91 78 77 71 68 70 74 80 84 93 92 88 81 75 77 80 85 70 64 64 69 70 70 73 82 79 86 92 95 100 104 107 109 110 109 113 114 114 115 118
107 98 88 85 80 75 71 69 71 76 81 83 92 92 91 86 79 76 76 76 75 72 70 67 73 67 70 70 74 81 87 95 99 100 103 105 107 108 110 111 112 113 114
108 98 84 80 70 66 67 69 75 82 87 89 93 94 91 86 83 84 86 84 79 76 76 73 74 72 72 72 73 82 90 91 96 99 102 103 103 105 106 109 110 110 111
104 94 81 77 73 73 74 74 78 85 93 96 97 94 92 89 87 85 82 80 78 78 79 76 74 72 70 69 72 79 82 87 93 97 99 102 105 106 110 111 114 114 114